Home > Time Zones > World Clock > Weather > Fiji > Nadi > Past weeks

Flag for Fiji Weather past 2 weeks in Nadi, Fiji

Now
73 °F

Passing clouds.


Feels Like: 76 °F
Forecast: 72 / 83 °F
Wind: 8 mph from Southeast

Location: Nandi

Current Time: Aug 27, 2014 at 9:08:58 PM

Latest Report: Aug 27, 2014 at 8:00 PM


Visibility: N/A

Pressure: 30.01 "Hg

Humidity: 69%

Dew point: 63 °F

Location of NadiLocation

Historic Weather in Nadi — Graph

°F

Nadi temperature yesterday

Maximum temperature yesterday: 79 °F (at 10:00 AM)
Minimum temperature yesterday: 66 °F (at 2:00 AM)
Average temperature yesterday: 72 °F

Past Weeks' High & Low Weather Summary

 TemperatureHumidityPressure
High88 °F (Aug 22, 1:00 PM)100% (Aug 14, 5:00 AM)30.07 "Hg (Aug 14, 5:00 AM)
Low63 °F (Aug 23, 6:00 AM)43% (Aug 23, 1:00 PM)29.89 "Hg (Aug 16, 3:00 PM)
Average74 °F73%29.99 "Hg
* Reported Aug 12 8:00 PM — Aug 27 8:00 PM, Nadi, Weather by CustomWeather, © 2014

Note: Actual official high and low records may vary slightly from our data, if they occured in-between our weather recording intervals... More about our weather records

Advertising

Nadi weather history for previous 24 hours

 ConditionsComfort  
Time TempWeatherWind HumidityBarometerVisibility
8:00 PM
Aug 27
73 °FPassing clouds.8 mph69%30.01 "HgN/A
7:00 PM75 °FPassing clouds.8 mph69%29.98 "HgN/A
6:00 PM75 °FScattered clouds.8 mph69%29.95 "HgN/A
5:00 PM77 °FScattered clouds.10 mph65%29.95 "HgN/A
4:00 PM79 °FPassing clouds.13 mph58%29.92 "HgN/A
3:00 PM79 °FPassing clouds.15 mph58%29.92 "HgN/A
2:00 PM79 °FPassing clouds.16 mph58%29.92 "HgN/A
1:00 PM79 °FPassing clouds.15 mph58%29.95 "HgN/A
12:00 PM79 °FPassing clouds.14 mph58%29.95 "HgN/A
11:00 AM79 °FPassing clouds.15 mph51%29.98 "HgN/A
10:00 AM81 °FPassing clouds.8 mph45%29.98 "HgN/A
9:00 AM77 °FPassing clouds.12 mph54%29.98 "HgN/A
8:00 AM72 °FPassing clouds.10 mph65%29.98 "HgN/A
7:00 AM64 °FPassing clouds.9 mph83%29.98 "HgN/A
6:00 AM64 °FPassing clouds.10 mph78%29.98 "HgN/A
5:00 AM66 °FPassing clouds.9 mph64%29.98 "HgN/A
4:00 AM66 °FPassing clouds.10 mph73%29.98 "HgN/A
3:00 AM66 °FPassing clouds.10 mph68%29.98 "HgN/A
2:00 AM64 °FPassing clouds.9 mph73%30.01 "HgN/A
1:00 AM66 °FPassing clouds.2 mph73%30.01 "HgN/A
12:00 AM66 °FPassing clouds.5 mph73%30.04 "HgN/A
11:00 PM
Aug 26
66 °FPassing clouds.6 mph73%30.01 "HgN/A
10:00 PM68 °FPassing clouds.7 mph69%30.01 "HgN/A
9:00 PM68 °FPassing clouds.8 mph73%30.01 "HgN/A
Weather by CustomWeather, © 2014

See weather overviewHow to use our weather pages